TDRS 11

Last updated on Thu Dec 18 2025 00:02:41 GMT+0000 (Coordinated Universal Time)

1 39070U 13004A 25351.52026025 .00000101 00000+0 00000+0 0 9995 2 39070 3.2621 27.7815 0000993 321.9533 109.8273 1.00263322 44874
UTC large
Height (km)
Speed (km/s)
/
Latitude / Longitude
Inclination (degrees)
Orbital Period (minutes)
Azimuth
Elevation
Range (km)
Doppler Factor

Next 0 passes for location: London (51.5072 / 0.1276)

Sorry there are no passes over London.